EW1109 Weather Reports


time (UTC)temp
C
wind
direction
speed
KPH
gust
KPH
rain 1hr
cm
rain 24hr
cm
rain mn
cm
humidity
%
barometer
mb
20260503021506 2 146 0.0 0.0 0.00 0.00 0.00 59 1014.6
20260503020002 2 211 0.0 4.8 0.00 0.00 0.00 61 1014.5
20260503014611 2 74 0.0 0.0 0.00 0.00 0.00 59 1014.4
20260503013059 3 74 0.0 0.0 0.00 0.00 0.00 57 1014.2
20260503011603 4 156 0.0 0.0 0.00 0.00 0.00 55 1014.3
20260503010057 5 188 0.0 0.0 0.00 0.00 0.00 52 1014.3
20260503004555 6 101 0.0 3.2 0.00 0.00 0.00 48 1014.3
20260503003054 6 211 0.0 6.4 0.00 0.00 0.00 47 1014.4
20260503001546 7 217 0.0 11.3 0.00 0.00 0.00 46 1014.4
20260503000033 7 217 0.0 6.4 0.00 0.00 0.00 46 1014.5
20260502234527 7 193 0.0 8.0 0.00 0.00 0.00 46 1014.6
20260502233018 7 203 0.0 12.9 0.00 0.00 0.00 46 1014.7
20260502231518 7 285 0.0 12.9 0.00 0.00 0.00 46 1014.9
20260502230022 8 225 0.0 9.7 0.00 0.00 0.00 45 1015.0
20260502224515 7 217 1.6 12.9 0.00 0.00 0.00 45 1014.9
20260502223017 8 156 3.2 14.5 0.00 0.00 0.00 45 1015.1
20260502221513 8 178 4.8 17.7 0.00 0.00 0.00 44 1015.2
20260502220012 8 196 6.4 17.7 0.00 0.00 0.00 41 1015.3
20260502214610 7 146 3.2 11.3 0.00 0.00 0.00 44 1015.4
20260502213052 7 254 6.4 16.1 0.00 0.00 0.00 45 1015.5
20260502211551 8 151 3.2 11.3 0.00 0.00 0.00 46 1015.7
20260502210032 7 223 4.8 11.3 0.00 0.00 0.00 46 1015.8
20260502204530 7 227 8.0 16.1 0.00 0.00 0.00 45 1016.0
20260502203014 7 246 1.6 16.1 0.00 0.00 0.00 48 1016.2
20260502201512 6 132 3.2 14.5 0.00 0.00 0.00 48 1016.4
20260502200013 6 235 6.4 17.7 0.00 0.00 0.00 45 1016.6
20260502194510 6 225 4.8 19.3 0.00 0.00 0.00 47 1016.8
20260502193008 6 208 1.6 20.9 0.00 0.00 0.00 49 1017.0
20260502191504 6 218 3.2 17.7 0.00 0.00 0.00 47 1017.1
20260502190002 6 163 3.2 20.9 0.00 0.00 0.00 46 1017.2
20260502184604 6 215 3.2 20.9 0.00 0.00 0.00 47 1017.3
20260502183101 5 206 3.2 22.5 0.00 0.00 0.00 47 1017.4
20260502181544 6 180 4.8 16.1 0.00 0.00 0.00 46 1017.6
20260502163016 4 236 4.8 12.9 0.00 0.00 0.00 36 1018.4
20260502161511 4 263 1.6 12.9 0.00 0.00 0.00 32 1018.5
20260502151506 3 255 3.2 9.7 0.00 0.00 0.00 37 1018.5
20260502123025 2 281 6.4 11.3 0.00 0.00 0.00 24 1018.9
20260502121516 2 281 6.4 12.9 0.00 0.00 0.00 25 1018.9
20260502114553 1 287 6.4 9.7 0.00 0.00 0.00 34 1018.9
20260502113035 1 286 6.4 9.7 0.00 0.00 0.00 32 1018.9
20260502111531 1 263 4.8 9.7 0.00 0.00 0.00 32 1018.9
20260502110027 1 281 4.8 9.7 0.00 0.00 0.00 30 1018.9
20260502104521 1 281 4.8 11.3 0.00 0.00 0.00 22 1018.8
20260502103017 1 286 4.8 12.9 0.00 0.00 0.00 12 1018.8
20260502101517 2 292 8.0 11.3 0.00 0.00 0.00 6 1018.8
20260502070054 1 311 0.0 0.0 0.00 0.00 0.00 44 1018.5
20260502064543 1 346 0.0 0.0 0.00 0.00 0.00 42 1018.6
20260502063039 1 345 0.0 0.0 0.00 0.00 0.00 41 1018.7
20260502061534 1 345 0.0 0.0 0.00 0.00 0.00 39 1018.7
20260502060029 1 346 0.0 3.2 0.00 0.00 0.00 36 1018.7
20260502054525 1 347 0.0 0.0 0.00 0.00 0.00 39 1018.6
20260502053003 1 347 0.0 0.0 0.00 0.00 0.00 39 1018.6
20260502051617 2 347 0.0 6.4 0.00 0.00 0.00 37 1018.6
20260502051503 1 347 0.0 6.4 0.00 0.00 0.00 37 1018.7
20260502050042 2 344 0.0 11.3 0.00 0.00 0.00 37 1018.6
20260502044539 2 355 1.6 8.0 0.00 0.00 0.00 39 1018.5
20260502043033 2 348 1.6 8.0 0.00 0.00 0.00 41 1018.6
20260502041540 2 344 3.2 11.3 0.00 0.00 0.00 43 1018.6
20260502040024 2 355 4.8 16.1 0.00 0.00 0.00 42 1018.6
20260502034520 2 346 0.0 6.4 0.00 0.00 0.00 40 1018.7
20260502033017 2 350 0.0 6.4 0.00 0.00 0.00 37 1018.7
20260502031512 2 355 1.6 11.3 0.00 0.00 0.00 31 1018.6
20260502030107 3 348 0.0 4.8 0.00 0.00 0.00 25 1018.7
20260502024551 3 355 0.0 9.7 0.00 0.00 0.00 29 1018.6
20260502023051 2 355 0.0 11.3 0.00 0.00 0.00 27 1018.6